Orbital Elements at Epoch 2459000.5 (2020-May-31.0) TDB
Reference: JPL 13 (heliocentric ecliptic J2000)
Element | Value | Uncertainty (1-sigma) | Units |
e | .2163182667997358 | 1.0046e-07 | |
a | 3.166718597170363 | 4.7458e-08 | au |
q | 2.48169951878798 | 3.4376e-07 | au |
i | 14.85975936503241 | 5.918e-06 | deg |
node | 339.1334579222077 | 2.5793e-05 | deg |
peri | 150.5035624191623 | 3.16e-05 | deg |
M | 268.7370389454037 | 1.9105e-05 | deg |
tp | 2459522.300739695790 (2021-Nov-03.80073970) | 0.00011731 | TDB |
period | 2058.31877598304 5.64 | 4.6271e-05 1.267e-07 | d yr |
n | .174900022387478 | 3.9317e-09 | deg/d |
Q | 3.851737675552747 | 5.7724e-08 | au |
|
| | Orbit Determination Parameters
Additional Information
|